Weather History for Andover, NJ

Change the Weather History Date:

Thursday, January 17, 2013

  Actual Average (KFWN) Record (KFWN)
Temperature  
Mean Temperature 36 °F -  
Max Temperature 39 °F 32 °F 52 °F (1949)
Min Temperature 33 °F 9 °F -14 °F (1971)
Degree Days  
Heating Degree Days 29    
Moisture  
Dew Point 26 °F    
Average Humidity 70    
Maximum Humidity 92    
Minimum Humidity 55    
Precipitation  
Precipitation 0.09 in - - ()
Sea Level Pressure  
Sea Level Pressure 30.05 in    
Wind  
Wind Speed 3 mph (NNE)    
Max Wind Speed 9 mph    
Max Gust Speed 16 mph    
Averages and records for this station are not official NWS values.
T = Trace of Precipitation, MM = Missing Value Source: NWS Daily Summary

Daily Weather History Graph

Daily Weather History Graph

Search for Another Location

Airport:

Trip Planner

Search our weather history database for the weather conditions in past years. The results will help you decide how hot, cold, wet, or windy it might be!

Date:

Astronomy

Jan. 17, 2013 Rise Set
Actual Time 7:20 AM EST 4:58 PM EST
Civil Twilight 6:50 AM EST 5:28 PM EST
Nautical Twilight 6:16 AM EST 6:01 PM EST
Astronomical Twilight 5:43 AM EST 6:34 PM EST
Moon 10:22 AM EST (1/17) 11:50 PM EST (1/17)
Length of Visible Light 10h 37m
Length of Day
9h 37m
Waxing Crescent, 37% of the Moon is Illuminated
Jan 17
Waxing Crescent
Jan 18
First Quarter
Jan 26
Full
Feb 3
Last Quarter
Feb 10
New

Hourly Weather History & Observations

Time (EST) Temp. Windchill Dew Point Humidity Pressure Visibility Wind Dir Wind Speed Gust Speed Precip Events Conditions
12:54 AM 33.1 °F 30.0 °F 30.9 °F 92% 29.96 in - South 3.5 mph - N/A   Unknown
1:54 AM 34.0 °F 31.0 °F 30.9 °F 89% 29.95 in - South 3.5 mph - N/A   Unknown
2:00 AM - - - N/A% - - North - - N/A   Unknown
2:54 AM 34.0 °F - 30.0 °F 85% 29.97 in - Calm Calm - N/A   Unknown
3:54 AM 35.1 °F 32.2 °F 27.0 °F 72% 29.95 in - South 3.5 mph - N/A   Unknown
4:54 AM 35.1 °F - 27.0 °F 72% 29.97 in - Calm Calm - 0.05 in   Unknown
5:54 AM 33.1 °F - 28.0 °F 82% 29.99 in - Calm Calm - N/A   Unknown
6:54 AM 33.1 °F - 28.0 °F 82% 30.01 in - Calm Calm - 0.02 in   Unknown
7:54 AM 34.0 °F - 26.1 °F 73% 30.04 in - Calm Calm - 0.02 in   Unknown
8:54 AM 36.0 °F - 27.0 °F 70% 30.07 in - Calm Calm - N/A   Unknown
9:54 AM 37.0 °F 34.5 °F 26.1 °F 65% 30.09 in - NNW 3.5 mph - N/A   Unknown
10:54 AM 39.0 °F 35.7 °F 26.1 °F 60% 30.08 in - Variable 4.6 mph - N/A   Unknown
11:54 AM 39.9 °F 33.9 °F 26.1 °F 58% 30.07 in - NNW 9.2 mph 16.1 mph N/A   Unknown
12:54 PM 39.9 °F 36.7 °F 25.0 °F 55% 30.06 in - Variable 4.6 mph - N/A   Unknown
1:54 PM 39.0 °F - 25.0 °F 57% 30.06 in - North - - N/A   Unknown
2:54 PM 39.0 °F 36.8 °F 24.1 °F 55% 30.06 in - North 3.5 mph - N/A   Unknown
3:54 PM 39.0 °F 36.8 °F 24.1 °F 55% 30.07 in - Variable 3.5 mph - N/A   Unknown
4:54 PM 36.0 °F - 28.0 °F 73% 30.09 in - Calm Calm - N/A   Unknown
5:54 PM 35.1 °F - 28.0 °F 76% 30.10 in - Calm Calm - N/A   Unknown
6:54 PM 35.1 °F 31.0 °F 26.1 °F 70% 30.12 in - NE 4.6 mph - N/A   Unknown
7:54 PM 34.0 °F 29.8 °F 24.1 °F 67% 30.11 in - NE 4.6 mph - N/A   Unknown
8:54 PM 34.0 °F - 23.0 °F 64% 30.09 in - Calm Calm - N/A   Unknown
9:54 PM 33.1 °F 28.7 °F 23.0 °F 66% 30.08 in - NE 4.6 mph - N/A   Unknown
10:54 PM 33.1 °F 30.0 °F 23.0 °F 66% 30.04 in - Variable 3.5 mph - N/A   Unknown
11:54 PM 33.1 °F 30.0 °F 23.0 °F 66% 30.05 in - North 3.5 mph - N/A   Unknown